Ingeniero Juan Guillermo Villasana Airport

Jump to: basic info | weather | frequencies | runways | comments

Related pages: nearby airports | nearby navaids | notams | map

Basic information (top)

Codes: MMPC
Location: lon 20.077400, lat -98.782501, elev 7,600 ft / 2,316 m msl
Status: small_airport

Weather (top)

Current conditions for Licenciado Benito Juarez International Airport 42nm (77km) SSW (rec'd 2014/10/20 16:48Z):

MMMX 201648Z 28007KT 10SM BKN020 BKN080 18/11 A3023 NOSIG RMK 8/130 HZY TCU ARND

Airport forecast for Licenciado Benito Juarez International Airport 42nm (77km) SSW (rec'd 2014/10/20 12:45Z):

TAF COR MMMX 201138Z 2012/2118 29004KT P6SM BKN025 OVC070 TX21/2021Z TN14/2012Z 
      TEMPO 2012/2014 5SM -RA 
     FM201400 05006KT P6SM SCT020 BKN080 
     FM201900 06010KT P6SM BKN020 BKN080 
      TEMPO 2021/2101 5SM TSRA BKN015CB OVC070 
     FM210100 06005KT P6SM BKN020 BKN070 
      TEMPO 2110/2114 5SM RA

Frequencies (top)

Verify before use: may be inaccurate or out of date.

AFIS: 122.9 MHz (AFIS)

Runways (top)

03/21: 6,825 x 85 ft (2,080 x 26 m) — paved — not lighted — threshold 03 displaced 656 ft (200 m) — threshold 21 displaced 865 ft (264 m)

Latest comments (top)

No comments yet for Ingeniero Juan Guillermo Villasana Airport

More... (top)

See also NOTAMs and nearby airports and navaids, or visit the Ingeniero Juan Guillermo Villasana Airport page at the main OurAirports website..